Regional Weather Roundup
Issued by NWS

Home | Current Version | Previous Version | Graphics & Text | Print | Product List | Glossary On
Versions: 1 2 3 4 5 6 7 8 9 10 11 12 13 14 15 16 17 18 19 20 21 22 23 24 25 26 27 28 29 30 31 32 33 34 35 36 37 38 39 40 41 42 43 44 45 46 47 48 49 50
000
ASUS43 KBIS 011910
RWRND

NORTH DAKOTA REGIONAL WEATHER ROUNDUP
NATIONAL WEATHER SERVICE BISMARCK ND
200 PM CDT WED APR 01 2015

NOTE: "FAIR" INDICATES FEW OR NO CLOUDS BELOW 12,000 FEET WITH NO
SIGNIFICANT WEATHER AND/OR OBSTRUCTIONS TO VISIBILITY.


NDZ001>003-009>011-017-012000-
NORTHWEST NORTH DAKOTA

CITY           SKY/WX    TMP DP  RH WIND       PRES   REMARKS
WILLISTON      MOSUNNY   53  29  39 W29G36    29.63S
MINOT          PTSUNNY   58  36  43 W28G37    29.50R
MINOT AFB      PTSUNNY   55  42  61 NW29G36   29.50R
$$

NDZ018>021-031>035-040>046-012000-
SOUTHWEST NORTH DAKOTA

CITY           SKY/WX    TMP DP  RH WIND       PRES   REMARKS
BISMARCK       CLOUDY    59  31  34 NW23G35   29.57R
DICKINSON      MOSUNNY   54  26  34 W32G45    29.62R
GARRISON         N/A     58  32  37 W24G37    29.54R
HETTINGER ARPT MOSUNNY   58  20  22 W37G46    29.66S
$$

NDZ004>008-012>016-024-026-027-054-012000-
NORTHEAST NORTH DAKOTA

CITY           SKY/WX    TMP DP  RH WIND       PRES   REMARKS
GRAND FORKS    PTSUNNY   65  37  35 W13       29.32F
GRND FRKS AFB  PTSUNNY   65  37  35 W14       29.33S
DEVILS LAKE    CLOUDY    54  39  58 W26       29.41R
$$

NDZ022-023-025-028>030-036>039-047>053-012000-
SOUTHEAST NORTH DAKOTA

CITY           SKY/WX    TMP DP  RH WIND       PRES   REMARKS
FARGO          CLOUDY    72  35  25 SW20G30   29.35R
JAMESTOWN      PTSUNNY   62  39  42 W31G46    29.43R
$$




USA.gov is the U.S. government's official web portal to all federal, state and local government web resources and services.